Weather History for Fond du Lac, WI

Change the Weather History Date:

Friday, April 11, 2014

  Actual Average Record
Temperature  
Mean Temperature 48 °F -  
Max Temperature 63 °F 50 °F 81 °F (1977)
Min Temperature 33 °F 33 °F 21 °F (1959)
Degree Days  
Heating Degree Days 17    
Moisture  
Dew Point 28 °F    
Average Humidity 47    
Maximum Humidity 78    
Minimum Humidity 27    
Precipitation  
Precipitation 0.00 in - - ()
Sea Level Pressure  
Sea Level Pressure 29.98 in    
Wind  
Wind Speed 7 mph (SW)    
Max Wind Speed 18 mph    
Max Gust Speed 31 mph    
Visibility 10 miles    
Events      
Averages and records for this station are not official NWS values.
T = Trace of Precipitation, MM = Missing Value Source: NWS Daily Summary

Daily Weather History Graph

Daily Weather History Graph

Search for Another Location

Airport:

Trip Planner

Search our weather history database for the weather conditions in past years. The results will help you decide how hot, cold, wet, or windy it might be!

Date:

Astronomy

Apr. 11, 2014 Rise Set
Actual Time 6:17 AM CDT 7:32 PM CDT
Civil Twilight 5:48 AM CDT 8:02 PM CDT
Nautical Twilight 5:12 AM CDT 8:38 PM CDT
Astronomical Twilight 4:35 AM CDT 9:16 PM CDT
Moon 4:07 PM CDT (4/11) 4:19 AM CDT (4/11)
Length of Visible Light 14h 14m
Length of Day
13h 15m
Waxing Gibbous, 87% of the Moon is Illuminated
Apr 11
Waxing Gibbous
Apr 15
Full
Apr 22
Last Quarter
Apr 29
New
May 6
First Quarter

Hourly Weather History & Observations

Time (CDT) Temp. Windchill Dew Point Humidity Pressure Visibility Wind Dir Wind Speed Gust Speed Precip Events Conditions
12:53 AM 33.1 °F 28.7 °F 27.0 °F 78% 29.96 in 10.0 mi South 4.6 mph - N/A   Clear
1:53 AM 42.1 °F 37.7 °F 21.0 °F 43% 29.96 in 10.0 mi WSW 6.9 mph - N/A   Clear
2:53 AM 39.9 °F 35.8 °F 25.0 °F 55% 29.95 in 10.0 mi WSW 5.8 mph - N/A   Clear
3:53 AM 41.0 °F 36.4 °F 23.0 °F 49% 29.96 in 10.0 mi SW 6.9 mph - N/A   Clear
4:53 AM 42.1 °F 37.7 °F 21.9 °F 45% 29.97 in 10.0 mi SW 6.9 mph - N/A   Clear
5:53 AM 41.0 °F 36.4 °F 21.9 °F 47% 29.99 in 10.0 mi SW 6.9 mph - N/A   Clear
6:53 AM 41.0 °F 37.1 °F 21.9 °F 47% 30.01 in 10.0 mi SW 5.8 mph - N/A   Clear
7:53 AM 46.9 °F - 25.0 °F 42% 30.01 in 10.0 mi SSW 6.9 mph - N/A   Clear
8:53 AM 48.9 °F - 27.0 °F 43% 30.01 in 10.0 mi SSW 5.8 mph - N/A   Mostly Cloudy
9:53 AM 53.1 °F - 26.1 °F 35% 30.00 in 10.0 mi SW 9.2 mph - N/A   Clear
10:53 AM 57.0 °F - 25.0 °F 29% 30.00 in 10.0 mi SSW 11.5 mph - N/A   Clear
11:53 AM 57.9 °F - 24.1 °F 27% 30.01 in 10.0 mi SW 11.5 mph - N/A   Scattered Clouds
12:53 PM 59.0 °F - 25.0 °F 27% 30.00 in 10.0 mi West 13.8 mph 24.2 mph N/A   Mostly Cloudy
1:53 PM 57.9 °F - 27.0 °F 31% 29.98 in 10.0 mi WSW 10.4 mph - N/A   Overcast
2:53 PM 62.1 °F - 28.9 °F 29% 29.96 in 10.0 mi SW 15.0 mph 23.0 mph N/A   Mostly Cloudy
3:53 PM 61.0 °F - 33.1 °F 35% 29.95 in 10.0 mi SW 18.4 mph 31.1 mph N/A   Partly Cloudy
4:53 PM 63.0 °F - 33.1 °F 33% 29.94 in 10.0 mi West 10.4 mph 23.0 mph N/A   Partly Cloudy
5:53 PM 60.1 °F - 35.1 °F 39% 29.94 in 10.0 mi North 8.1 mph - N/A   Mostly Cloudy
6:53 PM 53.1 °F - 36.0 °F 52% 29.96 in 10.0 mi NNE 11.5 mph - N/A   Clear
7:53 PM 46.9 °F - 37.9 °F 71% 29.98 in 10.0 mi NE 5.8 mph - N/A   Clear
8:53 PM 46.0 °F 43.9 °F 37.0 °F 71% 30.00 in 10.0 mi ESE 4.6 mph - N/A   Clear
9:53 PM 46.0 °F 44.8 °F 32.0 °F 58% 30.03 in 10.0 mi East 3.5 mph - N/A   Clear
10:53 PM 44.1 °F 42.5 °F 33.1 °F 65% 30.03 in 10.0 mi East 3.5 mph - N/A   Clear
11:53 PM 41.0 °F - 33.1 °F 73% 30.03 in 10.0 mi Calm Calm - N/A   Clear